Date,TemperatureHighF,TemperatureAvgF,TemperatureLowF,DewpointHighF,DewpointAvgF,DewpointLowF,HumidityHigh,HumidityAvg,HumidityLow,PressureMaxIn,PressureMinIn,WindSpeedMaxMPH,WindSpeedAvgMPH,GustSpeedMaxMPH,PrecipitationSumIn
2013-1-1,0.0,0.0,0.0,0.0,0.0,0.0,0,0,100,30.17,29.78,0,0,0,0.00
2013-1-2,0.0,0.0,0.0,0.0,0.0,0.0,0,0,100,30.20,29.73,0,0,0,0.00
2013-1-3,0.0,0.0,0.0,0.0,0.0,0.0,0,0,100,30.22,29.82,0,0,0,0.00
2013-1-4,0.0,0.0,0.0,0.0,0.0,0.0,0,0,100,30.04,29.85,0,0,0,0.00
2013-1-5,0.0,0.0,0.0,0.0,0.0,0.0,0,0,100,30.06,29.88,0,0,0,0.00
2013-1-6,0.0,0.0,0.0,0.0,0.0,0.0,0,0,100,30.10,29.65,0,0,0,0.00
2013-1-7,0.0,0.0,0.0,0.0,0.0,0.0,0,0,100,29.81,29.59,0,0,0,0.00
2013-1-8,0.0,0.0,0.0,0.0,0.0,0.0,0,0,100,29.80,29.53,0,0,0,0.00
2013-1-9,0.0,0.0,0.0,0.0,0.0,0.0,0,0,100,30.13,29.63,0,0,0,0.00
2013-1-10,0.0,0.0,0.0,0.0,0.0,0.0,0,0,100,29.94,29.49,0,0,0,0.00
2013-1-11,0.0,0.0,0.0,0.0,0.0,0.0,0,0,100,29.50,29.42,0,0,0,0.00
2013-1-12,0.0,0.0,0.0,0.0,0.0,0.0,0,0,100,30.13,29.48,0,0,0,0.00
2013-1-13,0.0,0.0,0.0,0.0,0.0,0.0,0,0,100,30.17,30.07,0,0,0,0.00
2013-1-14,0.0,0.0,0.0,0.0,0.0,0.0,0,0,100,30.25,30.09,0,0,0,0.00
2013-1-15,0.0,0.0,0.0,0.0,0.0,0.0,0,0,100,30.09,29.41,0,0,0,0.00
2013-1-16,0.0,0.0,0.0,0.0,0.0,0.0,0,0,100,30.26,29.41,0,0,0,0.00
2013-1-17,0.0,0.0,0.0,0.0,0.0,0.0,0,0,100,30.36,30.07,0,0,0,0.00
2013-1-18,0.0,0.0,0.0,0.0,0.0,0.0,0,0,100,30.08,29.63,0,0,0,0.00
2013-1-19,0.0,0.0,0.0,0.0,0.0,0.0,0,0,100,30.31,29.58,0,0,0,0.00
2013-1-20,0.0,0.0,0.0,0.0,0.0,0.0,0,0,100,30.34,30.27,0,0,0,0.00
2013-1-21,0.0,0.0,0.0,0.0,0.0,0.0,0,0,100,30.31,30.23,0,0,0,0.00
2013-1-22,0.0,0.0,0.0,0.0,0.0,0.0,0,0,100,30.28,30.09,0,0,0,0.00
2013-1-23,0.0,0.0,0.0,0.0,0.0,0.0,0,0,100,30.64,30.08,0,0,0,0.00
2013-1-24,0.0,0.0,0.0,0.0,0.0,0.0,0,0,100,30.62,29.86,0,0,0,0.00
2013-1-25,0.0,0.0,0.0,0.0,0.0,0.0,0,0,100,30.27,29.81,0,0,0,0.00
2013-1-26,0.0,0.0,0.0,0.0,0.0,0.0,0,0,100,30.25,29.95,0,0,0,0.00
2013-1-27,0.0,0.0,0.0,0.0,0.0,0.0,0,0,100,29.96,29.72,0,0,0,0.00
2013-1-28,0.0,0.0,0.0,0.0,0.0,0.0,0,0,100,29.76,29.66,0,0,0,0.00
2013-1-29,0.0,0.0,0.0,0.0,0.0,0.0,0,0,100,29.92,29.64,0,0,0,0.00
2013-1-30,0.0,0.0,0.0,0.0,0.0,0.0,0,0,100,29.91,29.80,0,0,0,0.00
2013-1-31,0.0,0.0,0.0,0.0,0.0,0.0,0,0,100,30.25,29.88,0,0,0,0.00
2013-2-1,0.0,0.0,0.0,0.0,0.0,0.0,0,0,100,30.22,29.98,0,0,0,0.00
2013-2-2,0.0,0.0,0.0,0.0,0.0,0.0,0,0,100,30.14,29.90,0,0,0,0.00
2013-2-3,0.0,0.0,0.0,0.0,0.0,0.0,0,0,100,30.04,29.97,0,0,0,0.00
2013-2-4,0.0,0.0,0.0,0.0,0.0,0.0,0,0,100,30.01,29.46,0,0,0,0.00
2013-2-5,0.0,0.0,0.0,0.0,0.0,0.0,0,0,100,30.00,29.50,0,0,0,0.00
2013-2-6,0.0,0.0,0.0,0.0,0.0,0.0,0,0,100,30.09,29.84,0,0,0,0.00
2013-2-7,0.0,0.0,0.0,0.0,0.0,0.0,0,0,100,30.25,30.09,0,0,0,0.00
2013-2-8,0.0,0.0,0.0,0.0,0.0,0.0,0,0,100,30.25,29.96,0,0,0,0.00
2013-2-9,0.0,0.0,0.0,0.0,0.0,0.0,0,0,100,29.96,29.82,0,0,0,0.00
2013-2-10,0.0,0.0,0.0,0.0,0.0,0.0,0,0,100,29.83,29.55,0,0,0,0.00
2013-2-11,0.0,0.0,0.0,0.0,0.0,0.0,0,0,100,29.91,29.68,0,0,0,0.00
2013-2-12,0.0,0.0,0.0,0.0,0.0,0.0,0,0,100,29.81,29.64,0,0,0,0.00
2013-2-13,0.0,0.0,0.0,0.0,0.0,0.0,0,0,100,29.73,29.55,0,0,0,0.00
2013-2-14,0.0,0.0,0.0,0.0,0.0,0.0,0,0,100,30.21,29.73,0,0,0,0.00
2013-2-15,0.0,0.0,0.0,0.0,0.0,0.0,0,0,100,30.32,30.15,0,0,0,0.00
2013-2-16,0.0,0.0,0.0,0.0,0.0,0.0,0,0,100,30.15,29.85,0,0,0,0.00
2013-2-17,0.0,0.0,0.0,0.0,0.0,0.0,0,0,100,29.85,29.41,0,0,0,0.00
2013-2-18,0.0,0.0,0.0,0.0,0.0,0.0,0,0,100,30.11,29.42,0,0,0,0.00
2013-2-19,0.0,0.0,0.0,0.0,0.0,0.0,0,0,100,30.46,30.11,0,0,0,0.00
2013-2-20,0.0,0.0,0.0,0.0,0.0,0.0,0,0,100,30.46,30.30,0,0,0,0.00
2013-2-21,0.0,0.0,0.0,0.0,0.0,0.0,0,0,100,30.36,30.13,0,0,0,0.00
2013-2-22,0.0,0.0,0.0,0.0,0.0,0.0,0,0,100,30.14,29.86,0,0,0,0.00
2013-2-23,0.0,0.0,0.0,0.0,0.0,0.0,0,0,100,29.89,29.80,0,0,0,0.00
2013-2-24,0.0,0.0,0.0,0.0,0.0,0.0,0,0,100,29.97,29.89,0,0,0,0.00
2013-2-25,0.0,0.0,0.0,0.0,0.0,0.0,0,0,100,29.99,29.91,0,0,0,0.00
2013-2-26,0.0,0.0,0.0,0.0,0.0,0.0,0,0,100,30.04,29.92,0,0,0,0.00
2013-2-27,0.0,0.0,0.0,0.0,0.0,0.0,0,0,100,30.17,30.04,0,0,0,0.00
2013-2-28,0.0,0.0,0.0,0.0,0.0,0.0,0,0,100,30.28,30.16,0,0,0,0.00
2013-3-1,0.0,0.0,0.0,0.0,0.0,0.0,0,0,100,30.37,30.27,0,0,0,0.00
2013-3-2,0.0,0.0,0.0,0.0,0.0,0.0,0,0,100,30.28,30.01,0,0,0,0.00
2013-3-3,0.0,0.0,0.0,0.0,0.0,0.0,0,0,100,30.01,29.81,0,0,0,0.00
2013-3-4,0.0,0.0,0.0,0.0,0.0,0.0,0,0,100,30.00,29.78,0,0,0,0.00
2013-3-5,0.0,0.0,0.0,0.0,0.0,0.0,0,0,100,30.35,30.00,0,0,0,0.00
2013-3-6,0.0,0.0,0.0,0.0,0.0,0.0,0,0,100,30.39,30.24,0,0,0,0.00
2013-3-7,0.0,0.0,0.0,0.0,0.0,0.0,0,0,100,30.27,30.12,0,0,0,0.00
2013-3-8,0.0,0.0,0.0,0.0,0.0,0.0,0,0,100,30.16,30.02,0,0,0,0.00
2013-3-9,0.0,0.0,0.0,0.0,0.0,0.0,0,0,100,30.02,29.78,0,0,0,0.00
2013-3-10,0.0,0.0,0.0,0.0,0.0,0.0,0,0,100,30.18,29.97,0,0,0,0.00
2013-3-11,0.0,0.0,0.0,0.0,0.0,0.0,0,0,100,30.05,29.75,0,0,0,0.00
2013-3-12,0.0,0.0,0.0,0.0,0.0,0.0,0,0,100,30.26,29.82,0,0,0,0.00
2013-3-13,0.0,0.0,0.0,0.0,0.0,0.0,0,0,100,30.31,30.01,0,0,0,0.00
2013-3-14,0.0,0.0,0.0,0.0,0.0,0.0,0,0,100,30.07,29.98,0,0,0,0.00
2013-3-15,0.0,0.0,0.0,0.0,0.0,0.0,0,0,100,30.11,29.97,0,0,0,0.00
2013-3-16,0.0,0.0,0.0,0.0,0.0,0.0,0,0,100,30.26,30.10,0,0,0,0.00
2013-3-17,0.0,0.0,0.0,0.0,0.0,0.0,0,0,100,30.26,29.56,0,0,0,0.00
2013-3-18,0.0,0.0,0.0,0.0,0.0,0.0,0,0,100,29.90,29.39,0,0,0,0.00
2013-3-19,0.0,0.0,0.0,0.0,0.0,0.0,0,0,100,30.26,29.90,0,0,0,0.00
2013-3-20,0.0,0.0,0.0,0.0,0.0,0.0,0,0,100,30.29,30.13,0,0,0,0.00
2013-3-21,0.0,0.0,0.0,0.0,0.0,0.0,0,0,100,30.14,30.05,0,0,0,0.00
2013-3-22,0.0,0.0,0.0,0.0,0.0,0.0,0,0,100,30.10,30.03,0,0,0,0.00
2013-3-23,0.0,0.0,0.0,0.0,0.0,0.0,0,0,100,30.15,30.08,0,0,0,0.00
2013-3-24,0.0,0.0,0.0,0.0,0.0,0.0,0,0,100,30.19,30.10,0,0,0,0.00
2013-3-25,0.0,0.0,0.0,0.0,0.0,0.0,0,0,100,30.29,30.18,0,0,0,0.00
2013-3-26,0.0,0.0,0.0,0.0,0.0,0.0,0,0,100,30.30,30.23,0,0,0,0.00
2013-3-27,0.0,0.0,0.0,0.0,0.0,0.0,0,0,100,30.28,30.22,0,0,0,0.00
2013-3-28,0.0,0.0,0.0,0.0,0.0,0.0,0,0,100,30.24,30.17,0,0,0,0.00
2013-3-29,0.0,0.0,0.0,0.0,0.0,0.0,0,0,100,30.19,29.93,0,0,0,0.00
2013-3-30,0.0,0.0,0.0,0.0,0.0,0.0,0,0,100,29.93,29.81,0,0,0,0.00
2013-3-31,0.0,0.0,0.0,0.0,0.0,0.0,0,0,100,30.17,29.79,0,0,0,0.00
2013-4-1,0.0,0.0,0.0,0.0,0.0,0.0,0,0,100,30.26,30.16,0,0,0,0.00
2013-4-2,0.0,0.0,0.0,0.0,0.0,0.0,0,0,100,30.32,30.20,0,0,0,0.00
2013-4-3,35.8,19.4,0.0,34.8,18.8,0.0,96,54,94,30.27,29.86,0,0,0,0.00
2013-4-4,35.2,20.0,0.0,34.1,15.8,0.0,96,49,70,30.27,29.98,0,0,0,0.00
2013-4-5,34.2,20.6,0.0,30.5,18.6,0.0,93,59,78,30.27,29.82,0,0,0,0.00
2013-4-6,40.4,21.8,0.0,36.9,19.9,0.0,94,54,82,29.83,29.67,0,0,0,0.00
2013-4-7,38.3,21.5,0.0,34.1,19.8,0.0,95,55,83,29.88,29.80,0,0,0,0.00
2013-4-8,33.5,17.0,0.0,32.2,14.1,0.0,95,55,78,30.32,29.81,0,0,0,0.00
2013-4-9,33.0,17.8,0.0,21.9,12.0,0.0,82,45,61,30.42,30.30,0,0,0,0.00
2013-4-10,41.6,22.1,0.0,28.6,16.3,0.0,79,42,57,30.39,30.05,0,0,0,0.00
2013-4-11,35.1,20.9,0.0,30.3,18.4,0.0,93,56,71,30.06,29.90,0,0,0,0.00
2013-4-12,32.1,0.7,0.0,30.3,0.7,0.0,93,2,93,29.91,29.84,0,0,0,0.00
2013-4-13,35.2,13.0,0.0,32.6,11.4,0.0,94,34,81,29.93,29.83,0,0,0,0.00
2013-4-14,38.7,24.0,0.0,32.2,20.7,0.0,89,56,72,29.93,29.55,0,0,0,0.00
2013-4-15,36.6,0.8,0.0,32.2,0.7,0.0,84,2,84,29.92,29.46,0,0,0,0.00
2013-4-16,0.0,0.0,0.0,0.0,0.0,0.0,0,0,100,30.32,29.91,0,0,0,0.00
2013-4-17,0.0,0.0,0.0,0.0,0.0,0.0,0,0,100,30.33,30.09,0,0,0,0.00
2013-4-18,39.0,15.6,0.0,34.9,12.3,0.0,96,30,68,30.10,29.84,0,0,0,0.00
2013-4-19,38.2,21.4,0.0,28.9,15.7,0.0,75,43,63,30.06,29.82,0,0,0,0.00
2013-4-20,41.9,23.8,0.0,28.7,16.8,0.0,79,42,55,30.20,30.06,0,0,0,0.00
2013-4-21,43.9,25.5,0.0,38.6,22.6,0.0,95,57,69,30.13,29.92,0,0,0,0.00
2013-4-22,40.0,24.0,0.0,31.8,17.0,0.0,83,45,57,30.34,30.13,0,0,0,0.00
2013-4-23,44.4,27.4,0.0,31.1,19.6,0.0,85,46,53,30.32,29.98,0,0,0,0.00
2013-4-24,46.4,26.1,0.0,36.5,22.0,0.0,93,54,65,30.00,29.82,0,0,0,0.00
2013-4-25,50.3,31.0,0.0,38.4,24.6,0.0,85,51,58,30.08,29.88,0,0,0,0.00
2013-4-26,69.9,38.4,0.0,48.6,28.5,0.0,80,36,41,29.98,29.83,0,0,0,0.00
2013-4-27,74.7,42.4,0.0,55.3,31.7,0.0,63,34,44,29.95,29.59,0,0,0,0.00
2013-4-28,66.4,38.1,0.0,52.1,25.8,0.0,76,34,31,29.80,29.51,0,0,0,0.00
2013-4-29,70.5,40.5,0.0,46.5,27.9,0.0,69,32,36,29.82,29.39,0,0,0,0.00
2013-4-30,64.1,33.5,0.0,49.4,27.1,0.0,96,48,52,30.01,29.30,0,0,0,0.00
2013-5-1,45.0,26.7,0.0,36.5,18.7,0.0,72,41,51,30.59,30.00,0,0,0,0.00
2013-5-2,42.8,24.4,0.0,28.9,17.0,0.0,75,40,55,30.69,30.53,0,0,0,0.00
2013-5-3,59.0,31.8,0.0,35.5,19.3,0.0,64,28,35,30.54,30.24,0,0,0,0.00
2013-5-4,58.7,35.8,0.0,37.9,23.3,0.0,62,34,37,30.27,30.20,0,0,0,0.00
2013-5-5,69.7,42.1,0.0,46.2,29.6,0.0,86,36,39,30.24,30.05,0,0,0,0.00
2013-5-6,84.2,50.1,0.0,48.7,30.0,0.0,68,24,24,30.06,29.91,0,0,0,0.00
2013-5-7,82.5,47.5,0.0,52.8,29.7,0.0,58,23,28,29.93,29.77,0,0,0,0.00
2013-5-8,75.8,40.2,0.0,47.0,27.2,0.0,68,31,36,30.08,29.79,0,0,0,0.00
2013-5-9,70.4,39.7,0.0,37.9,18.8,0.0,48,18,18,30.19,30.08,0,0,0,0.00
2013-5-10,70.9,37.4,0.0,44.2,22.0,0.0,67,26,32,30.12,29.81,0,0,0,0.00
2013-5-11,55.4,32.6,0.0,28.0,14.8,0.0,58,23,25,30.25,30.09,0,0,0,0.00
2013-5-12,75.1,38.9,0.0,30.0,16.2,0.0,40,16,17,30.22,29.91,0,0,0,0.00
2013-5-13,95.7,52.1,0.0,51.7,26.1,0.0,36,16,17,29.92,29.45,0,0,1,0.00
2013-5-14,81.9,44.1,0.0,63.0,30.2,0.0,72,28,21,29.67,29.38,0,0,0,0.00
2013-5-15,87.1,49.0,0.0,48.1,26.3,0.0,48,17,20,29.76,29.67,0,0,0,0.00
2013-5-16,74.9,2.2,0.0,42.3,1.2,0.0,31,1,31,29.90,29.76,0,0,0,0.00
2013-5-17,84.0,47.2,0.0,56.1,33.6,0.0,69,31,33,29.89,29.76,0,0,0,0.00
2013-5-18,74.3,40.5,0.0,63.8,35.3,0.0,94,43,50,29.80,29.72,0,0,0,0.00
2013-5-19,66.2,2.2,0.0,58.0,1.9,0.0,75,2,75,29.75,29.53,0,0,0,0.00
2013-5-20,0.0,0.0,0.0,0.0,0.0,0.0,0,0,100,29.59,29.46,0,0,0,0.00
2013-5-21,51.9,16.0,0.0,48.3,14.9,0.0,88,28,86,29.87,29.59,0,0,0,0.00
2013-5-22,80.0,46.4,0.0,47.6,27.3,0.0,88,23,22,30.06,29.86,0,0,0,0.00
2013-5-23,76.8,45.7,0.0,44.3,22.3,0.0,52,19,19,30.26,30.06,0,0,0,0.00
2013-5-24,76.4,47.0,0.0,41.7,27.5,0.0,65,26,23,30.20,30.07,0,0,0,0.00
2013-5-25,82.2,45.9,0.0,55.2,33.3,0.0,65,32,37,30.09,30.00,0,0,0,0.00
2013-5-26,67.1,38.7,0.0,51.5,30.3,0.0,67,37,52,30.06,29.94,0,0,0,0.00
2013-5-27,80.5,45.1,0.0,58.9,34.2,0.0,67,35,41,29.94,29.69,0,0,0,0.00
2013-5-28,79.9,38.5,0.0,60.1,31.1,0.0,89,35,50,29.70,29.51,0,0,0,0.00
2013-5-29,85.9,51.3,0.0,63.4,39.8,0.0,74,38,41,29.60,29.53,0,0,0,0.00
2013-5-30,81.4,38.4,0.0,70.7,33.7,0.0,91,38,59,29.54,29.32,0,0,0,0.02
2013-5-31,78.5,40.4,0.0,64.3,34.2,0.0,80,40,55,29.58,29.26,0,0,0,0.00
2013-6-1,66.0,33.1,0.0,57.5,26.8,0.0,82,39,57,30.03,29.57,0,0,0,0.00
2013-6-2,72.1,41.9,0.0,46.7,27.5,0.0,74,30,33,30.07,29.95,0,0,0,0.00
2013-6-3,67.9,42.8,0.0,42.8,26.4,0.0,74,28,33,30.01,29.90,0,0,0,0.00
2013-6-4,64.6,33.0,0.0,58.0,29.6,0.0,86,43,44,29.99,29.86,0,0,0,0.00
2013-6-5,66.6,10.0,0.0,56.8,8.7,0.0,86,12,66,30.01,29.92,0,0,0,0.00
2013-9-6,100.6,89.8,78.8,72.4,27.2,0.0,71,19,38,29.87,29.72,0,0,0,0.00
2013-9-7,92.2,84.8,70.3,64.9,24.8,0.0,77,21,37,30.01,29.77,0,0,0,0.00
2013-9-8,75.2,71.5,65.2,63.6,13.1,0.0,89,19,87,30.00,29.76,0,0,0,0.00
2013-9-9,70.8,68.1,67.6,65.6,6.8,0.0,87,9,82,29.76,29.54,0,0,0,0.00
2013-9-10,82.1,73.5,68.6,63.2,23.1,0.0,82,21,43,29.82,29.69,0,0,0,0.00
2013-9-11,81.5,76.2,66.2,62.2,21.5,0.0,85,17,32,30.09,29.80,0,0,0,0.00
2013-9-12,78.7,71.8,61.2,54.7,38.2,0.0,76,36,36,30.23,30.09,0,0,0,0.00
2013-9-13,79.1,45.1,0.0,55.4,32.7,0.0,68,30,41,30.16,29.83,0,0,0,0.00
2013-9-14,73.0,42.0,0.0,58.1,37.9,0.0,85,53,53,29.93,29.73,0,0,0,0.00
2013-9-15,72.6,40.0,0.0,58.1,25.7,0.0,85,26,32,30.26,29.93,0,0,0,0.00
2013-9-16,73.5,40.3,0.0,52.7,29.3,0.0,73,31,39,30.27,30.00,0,0,0,0.00
2013-9-17,66.7,39.7,0.0,58.1,34.8,0.0,81,47,53,30.00,29.71,0,0,0,0.00
2013-9-18,77.6,44.8,0.0,68.4,40.2,0.0,91,48,67,29.71,29.48,0,0,0,0.00
2013-9-19,76.0,41.8,0.0,66.6,33.5,0.0,86,36,50,29.79,29.50,0,0,0,0.00
2013-9-20,68.7,32.0,0.0,55.2,26.1,0.0,87,37,62,29.94,29.79,0,0,0,0.00
2013-9-21,69.7,37.1,0.0,46.0,25.8,0.0,66,29,41,29.98,29.80,0,0,0,0.00
2013-9-22,81.5,43.3,0.0,58.9,32.2,0.0,57,29,43,29.81,29.49,0,0,0,0.00
2013-9-23,81.9,45.2,0.0,57.3,32.5,0.0,57,28,40,29.67,29.50,0,0,0,0.00
2013-9-24,83.7,42.3,0.0,57.4,27.5,0.0,82,23,22,29.82,29.67,0,0,0,0.00
2013-9-25,81.0,45.1,0.0,59.3,34.0,0.0,77,32,39,29.80,29.63,0,0,0,0.00
2013-9-26,79.8,46.5,0.0,61.1,36.3,0.0,68,34,52,29.71,29.54,0,0,0,0.00
2013-9-27,77.1,1.9,0.0,60.2,1.5,0.0,56,1,56,29.75,29.64,0,0,0,0.00
2013-9-28,59.7,15.8,0.0,51.6,13.9,0.0,80,22,71,29.72,29.54,0,0,0,0.03
2013-9-29,76.5,42.8,0.0,57.6,33.0,0.0,93,36,40,29.72,29.43,0,0,0,0.00
2013-9-30,79.3,46.3,0.0,55.3,30.8,0.0,68,26,32,29.47,29.36,0,0,0,0.00
2013-10-1,72.8,41.3,0.0,51.4,23.6,0.0,55,22,26,29.82,29.41,0,0,0,0.00
2013-10-2,65.6,30.7,0.0,52.6,27.1,0.0,88,42,34,29.95,29.82,0,0,0,0.00
2013-10-3,57.2,29.4,0.0,51.1,25.1,0.0,89,40,69,30.09,29.92,0,0,0,0.00
2013-10-4,55.7,1.6,0.0,46.1,1.3,0.0,70,2,70,30.21,30.04,0,0,0,0.00
2013-10-5,0.0,0.0,0.0,0.0,0.0,0.0,0,0,100,30.05,29.85,0,0,0,0.00
2013-10-6,65.9,34.6,0.0,50.7,26.9,0.0,86,35,49,29.88,29.74,0,0,0,0.00
2013-10-7,68.9,39.2,0.0,50.2,28.4,0.0,80,32,43,29.91,29.68,0,0,0,0.00
2013-10-8,72.7,41.3,0.0,53.9,31.8,0.0,83,35,49,29.68,29.50,0,0,0,0.00
2013-10-9,75.5,42.0,0.0,52.8,29.3,0.0,72,30,37,29.92,29.67,0,0,0,0.00
2013-10-10,77.4,41.8,0.0,57.0,32.5,0.0,77,34,48,29.91,29.59,0,0,0,0.00
2013-10-11,72.5,39.5,0.0,61.8,35.0,0.0,86,46,58,29.61,29.20,0,0,0,0.00
2013-10-12,64.1,23.0,0.0,58.5,18.0,0.0,82,29,57,30.12,29.26,0,0,0,0.00
2013-10-13,59.8,33.6,0.0,46.3,22.7,0.0,88,31,38,30.32,30.12,0,0,0,0.00
2013-10-14,56.3,1.6,0.0,35.8,1.0,0.0,46,1,46,30.33,30.09,0,0,0,0.00
2013-10-15,47.8,19.0,0.0,42.6,16.3,0.0,86,33,74,30.09,29.99,0,0,0,0.00
2013-10-16,63.2,33.2,0.0,45.0,25.4,0.0,86,36,44,29.99,29.73,0,0,0,0.00
2013-10-17,57.5,27.0,0.0,45.0,18.6,0.0,74,32,47,29.92,29.75,0,0,0,0.00
2013-10-18,50.9,26.1,0.0,37.6,19.3,0.0,82,35,51,29.90,29.69,0,0,0,0.00
2013-10-19,46.7,19.4,0.0,37.1,16.2,0.0,84,35,63,29.74,29.65,0,0,0,0.00
2013-10-20,42.3,15.1,0.0,35.3,11.8,0.0,76,29,69,29.93,29.62,0,0,0,0.00
2013-10-21,39.6,21.9,0.0,29.9,16.5,0.0,73,40,67,29.97,29.92,0,0,0,0.00
2013-10-22,41.3,21.0,0.0,33.8,17.3,0.0,92,43,64,30.06,29.97,0,0,0,0.00
2013-10-23,39.6,22.9,0.0,31.7,16.6,0.0,83,39,61,30.13,30.00,0,0,0,0.00
2013-10-24,44.2,18.8,0.0,32.8,13.4,0.0,66,27,59,30.25,30.13,0,0,0,0.00
2013-10-25,60.0,31.6,0.0,42.3,21.6,0.0,74,29,47,30.21,29.67,0,0,0,0.00
2013-10-26,59.6,19.4,0.0,39.4,13.2,0.0,59,26,47,30.12,29.82,0,0,0,0.00
2013-10-27,47.5,22.3,0.0,32.8,14.6,0.0,60,29,54,30.34,29.67,0,0,0,0.00
2013-10-28,41.6,18.8,0.0,26.6,10.3,0.0,58,25,49,30.56,30.34,0,0,0,0.00
2013-10-29,40.4,21.7,0.0,25.3,13.6,0.0,76,31,49,30.48,30.11,0,0,0,0.00
2013-10-30,42.6,23.2,0.0,36.8,19.6,0.0,81,43,54,30.11,29.64,0,0,0,0.00
2013-10-31,52.1,25.2,0.0,39.1,18.9,0.0,80,32,59,29.64,29.37,0,0,0,0.00
2013-11-1,52.1,26.8,0.0,36.7,19.6,0.0,78,34,54,29.87,29.43,0,0,0,0.00
2013-11-2,48.3,1.4,0.0,34.7,1.0,0.0,59,2,59,29.99,29.87,0,0,0,0.00
2013-11-3,55.5,22.9,0.0,36.1,15.0,0.0,51,21,46,29.89,29.58,0,0,0,0.00
2013-11-4,52.6,22.2,0.0,35.0,14.7,0.0,60,29,51,30.00,29.57,0,0,0,0.00
2013-11-5,42.7,22.5,0.0,28.1,13.6,0.0,74,35,52,30.17,30.00,0,0,0,0.00
2013-11-6,36.3,21.4,0.0,25.0,12.4,0.0,88,33,50,30.16,30.06,0,0,0,0.00
2013-11-7,39.1,21.3,0.0,28.8,15.8,0.0,81,42,52,30.20,30.07,0,0,0,0.00
2013-11-8,36.0,1.0,0.0,26.8,0.8,0.0,69,2,69,30.08,29.53,0,0,0,0.00
2013-11-9,0.0,0.0,0.0,0.0,0.0,0.0,0,0,100,30.21,29.56,0,0,0,0.00
2013-11-10,39.4,19.2,0.0,30.3,15.7,0.0,79,40,67,30.38,30.08,0,0,0,0.00
2013-11-11,36.2,11.0,0.0,30.3,6.6,0.0,82,44,70,30.76,30.38,0,0,0,0.00
2013-11-12,38.7,16.5,0.0,24.4,10.6,0.0,70,27,55,30.75,30.12,0,0,0,0.00
2013-11-13,54.8,31.1,0.0,38.9,21.6,0.0,75,35,50,30.12,29.74,0,0,0,0.00
2013-11-14,49.8,1.3,0.0,34.3,0.9,0.0,55,1,55,29.79,29.65,0,0,0,0.00
2013-11-15,0.0,0.0,0.0,0.0,0.0,0.0,0,0,100,29.70,29.29,0,0,0,0.00
2013-11-16,43.4,23.3,0.0,37.5,20.4,0.0,94,45,79,29.32,29.25,0,0,0,0.00
2013-11-17,43.3,1.3,0.0,37.2,1.1,0.0,79,2,79,29.87,29.32,0,0,0,0.00
2013-11-18,28.2,15.0,0.0,21.0,10.9,0.0,74,40,70,30.18,29.87,0,0,0,0.00
2013-11-19,27.3,0.7,0.0,19.8,0.5,0.0,73,2,73,30.12,29.48,0,0,0,0.00
2013-11-20,30.8,15.0,0.0,23.2,11.2,0.0,75,39,70,30.22,29.54,0,0,0,0.00
2013-11-21,27.6,0.7,0.0,20.7,0.5,0.0,75,2,75,30.58,30.21,0,0,0,0.00
2013-11-22,0.0,0.0,0.0,0.0,0.0,0.0,0,0,100,30.78,30.37,0,0,0,0.00
2013-11-23,0.0,0.0,0.0,0.0,0.0,0.0,0,0,100,30.87,30.46,0,0,0,0.00
2013-11-24,0.0,0.0,0.0,0.0,0.0,0.0,0,0,100,30.46,29.67,0,0,0,0.00
2013-11-25,0.0,0.0,0.0,0.0,0.0,0.0,0,0,100,30.14,29.71,0,0,0,0.00
2013-11-26,0.0,0.0,0.0,0.0,0.0,0.0,0,0,100,30.40,30.14,0,0,0,0.00
2013-11-27,0.0,0.0,0.0,0.0,0.0,0.0,0,0,100,30.37,29.91,0,0,0,0.00
2013-11-28,0.0,0.0,0.0,0.0,0.0,0.0,0,0,100,30.42,30.06,0,0,0,0.00
2013-11-29,0.0,0.0,0.0,0.0,0.0,0.0,0,0,100,30.40,29.91,0,0,0,0.00
2013-11-30,0.0,0.0,0.0,0.0,0.0,0.0,0,0,100,30.18,29.92,0,0,0,0.00
2013-12-1,0.0,0.0,0.0,0.0,0.0,0.0,0,0,100,30.18,29.79,0,0,0,0.00
2013-12-2,0.0,0.0,0.0,0.0,0.0,0.0,0,0,100,29.79,29.60,0,0,0,0.00
2013-12-3,0.0,0.0,0.0,0.0,0.0,0.0,0,0,100,29.89,29.71,0,0,0,0.00
2013-12-4,0.0,0.0,0.0,0.0,0.0,0.0,0,0,100,29.87,29.67,0,0,0,0.00
2013-12-5,0.0,0.0,0.0,0.0,0.0,0.0,0,0,100,30.25,29.72,0,0,0,0.00
2013-12-6,0.0,0.0,0.0,0.0,0.0,0.0,0,0,100,30.53,30.25,0,0,0,0.00
2013-12-7,0.0,0.0,0.0,0.0,0.0,0.0,0,0,100,30.53,30.38,0,0,0,0.00
2013-12-8,0.0,0.0,0.0,0.0,0.0,0.0,0,0,100,30.38,29.93,0,0,0,0.00
2013-12-9,0.0,0.0,0.0,0.0,0.0,0.0,0,0,100,29.97,29.74,0,0,0,0.00
2013-12-10,0.0,0.0,0.0,0.0,0.0,0.0,0,0,100,30.31,29.79,0,0,0,0.00
2013-12-11,0.0,0.0,0.0,0.0,0.0,0.0,0,0,100,30.40,30.12,0,0,0,0.00
2013-12-12,0.0,0.0,0.0,0.0,0.0,0.0,0,0,100,30.23,30.12,0,0,0,0.00
2013-12-13,0.0,0.0,0.0,0.0,0.0,0.0,0,0,100,30.36,30.23,0,0,0,0.00
2013-12-14,0.0,0.0,0.0,0.0,0.0,0.0,0,0,100,30.32,30.13,0,0,0,0.00
2013-12-15,0.0,0.0,0.0,0.0,0.0,0.0,0,0,100,30.18,29.91,0,0,0,0.00
2013-12-16,0.0,0.0,0.0,0.0,0.0,0.0,0,0,100,29.91,29.70,0,0,0,0.00
2013-12-17,0.0,0.0,0.0,0.0,0.0,0.0,0,0,100,30.05,29.77,0,0,0,0.00
2013-12-18,0.0,0.0,0.0,0.0,0.0,0.0,0,0,100,30.01,29.50,0,0,0,0.00
2013-12-19,0.0,0.0,0.0,0.0,0.0,0.0,0,0,100,30.24,30.01,0,0,0,0.00
2013-12-20,0.0,0.0,0.0,0.0,0.0,0.0,0,0,100,30.14,29.78,0,0,0,0.00
2013-12-21,0.0,0.0,0.0,0.0,0.0,0.0,0,0,100,30.16,29.80,0,0,0,0.00
2013-12-22,0.0,0.0,0.0,0.0,0.0,0.0,0,0,100,30.43,30.13,0,0,0,0.00
2013-12-23,0.0,0.0,0.0,0.0,0.0,0.0,0,0,100,30.55,30.30,0,0,0,0.00
2013-12-24,0.0,0.0,0.0,0.0,0.0,0.0,0,0,100,30.29,29.90,0,0,0,0.00
2013-12-25,0.0,0.0,0.0,0.0,0.0,0.0,0,0,100,30.10,29.89,0,0,0,0.00
2013-12-26,0.0,0.0,0.0,0.0,0.0,0.0,0,0,100,30.03,29.92,0,0,0,0.00
2013-12-27,0.0,0.0,0.0,0.0,0.0,0.0,0,0,100,29.92,29.67,0,0,0,0.00
2013-12-28,0.0,0.0,0.0,0.0,0.0,0.0,0,0,100,30.42,29.68,0,0,0,0.00
2013-12-29,0.0,0.0,0.0,0.0,0.0,0.0,0,0,100,30.45,30.12,0,0,0,0.00
2013-12-30,0.0,0.0,0.0,0.0,0.0,0.0,0,0,100,30.22,30.08,0,0,0,0.00
2013-12-31,0.0,0.0,0.0,0.0,0.0,0.0,0,0,100,30.42,30.16,0,0,0,0.00
2014-1-1,0.0,0.0,0.0,0.0,0.0,0.0,0,0,100,30.48,30.40,0,0,0,0.00
2014-1-2,0.0,0.0,0.0,0.0,0.0,0.0,0,0,100,30.45,30.01,0,0,0,0.00